Powrót do katalogu

COSMOS 2417

GLONASS

AktywnyNawigacjaMEO
NORAD 28917·PAYLOAD·🇷🇺 Russia

Wystrzelony Dec 25, 2005 z Baikonur Cosmodrome

Loading…

Następne Przeloty (najbliższe 24 godziny)

TLE

ŚwieżeSource: Space-Track

Epoka: Sep 9, 2026, 12:59 UTC

1 28917U 05050C   26252.54111478 -.00000033  00000-0  00000-0 0  9992
2 28917  65.5213 313.2954 0014615  97.7497 261.6515  2.13104580161028

Śledź COSMOS 2417 w czasie rzeczywistym z AllMySat

Download on the App Store